[[{"header":{"parameterUnit":"m.s-1","parameterCategory":1,"la1":30.2991,"la2":30.254,"lo1":-89.0895,"lo2":-89.0444,"dy":0.0017,"dx":0.0017,"nx":28,"ny":28,"refTime":"2023-06-26T21:00:00:Z","depth":0,"parameterNumber":2,"parameterNumberName":"U-component_of_WINDS"},"data":[0,0,0,0,0,0,0,0,0,0,0,0,0,0,0,0,0,0,0,0,0,0,0,0,0,0,0,0,0,0,0,0,0,0,0,0,0,0,0,0,0,0,0,0,0,0,0,0,0,0,0,0,0,0,0,0,0,0,2.8328,2.8326,0,2.8201,2.8199,2.8198,2.8063,2.8062,2.806,2.8058,2.7927,2.7925,2.7924,0,0,0,0,0,0,0,0,0,0,0,0,0,2.8456,2.8455,2.8328,2.8326,2.8325,2.8201,2.8199,2.8197,2.8064,2.8062,2.8059,2.8057,2.7928,2.7925,2.7923,0,0,0,0,0,0,0,0,0,0,0,0,0,2.8372,2.8454,2.8328,2.8243,2.8234,2.8201,2.8199,2.8197,2.8064,2.8061,2.8059,2.8056,2.7928,2.7926,2.7923,2.7963,0,0,2.7915,2.7914,0,0,0,0,0,0,0,0,2.8377,2.8367,2.8257,2.8249,2.8239,2.8145,2.8196,2.8119,2.8065,2.8129,2.8058,2.8055,2.8002,2.7993,2.7975,2.7957,2.7952,2.7915,2.7913,2.7912,2.7911,0,0,0,0,0,0,0,2.8383,2.8372,2.8277,2.8256,2.8245,2.8212,2.8197,2.8181,2.8083,2.8123,2.8113,2.81,2.7996,2.7978,2.7971,2.795,2.7915,2.7913,2.7911,2.791,2.7961,2.7964,0,0,0,0,0,0,2.8402,2.8378,2.8281,2.8274,2.8303,2.8212,2.8195,2.8178,2.8082,2.8065,2.8102,2.8094,2.7984,2.7974,2.7966,2.8008,2.7912,2.791,2.7908,2.7959,2.7962,2.7965,0,0,0,0,0,0,2.8405,2.8394,2.8287,2.8323,2.8307,2.8213,2.8195,2.8177,2.8159,2.8067,2.8049,2.8102,2.7981,2.797,2.7966,2.8002,2.7909,2.7906,2.7955,2.796,2.7964,2.8093,0,0,0,0,0,0,2.8409,2.8396,2.841,2.8324,2.8305,2.8288,2.8197,2.8177,2.8155,2.8143,2.8061,2.8045,2.7978,2.797,2.7963,2.7997,2.7904,2.7951,2.7957,2.7962,2.8085,2.8101,2.8115,0,0,0,0,0,2.8414,2.8451,2.8411,2.8401,2.8321,2.8291,2.828,2.8202,2.8158,2.8172,2.8113,2.8048,2.8,2.7971,2.7962,2.7995,2.7949,2.7956,2.7962,2.8078,2.8098,2.8115,0,0,0,0,0,0,2.8541,2.8438,2.8393,2.8403,2.8357,2.8268,2.8282,2.8225,2.819,2.818,2.8085,2.8068,2.8076,2.8035,2.8005,2.8031,2.7965,2.797,2.8057,2.8075,2.809,2.8099,2.7902,0,0,0,0,0,2.8571,2.8556,2.8465,2.8483,2.8462,2.8377,2.8361,2.8306,2.8254,2.8233,2.8174,2.8127,2.8101,2.8085,2.8056,2.8079,2.806,2.8098,2.8113,2.8126,2.8131,2.8142,2.8158,2.7987,2.7987,2.7987,0,0,2.8631,2.8573,2.8568,2.8507,2.8465,2.8452,2.8361,2.835,2.8339,2.8231,2.8224,2.818,2.8121,2.8131,2.8133,2.8097,2.8174,2.8134,2.8145,2.8143,2.815,2.8167,2.8181,2.7991,2.7991,2.799,0,0,2.8734,2.8688,2.8698,2.8659,2.8597,2.854,2.8543,2.8464,2.8431,2.8423,2.8342,2.8329,2.8285,2.8247,2.8222,2.8316,2.8255,2.8309,2.8387,2.8399,2.8412,2.8424,2.8458,2.8472,2.8315,2.8315,2.8315,0,2.8816,2.8792,2.871,2.8705,2.8682,2.8585,2.8596,2.8561,2.8493,2.8479,2.8441,2.8387,2.834,2.8341,2.8365,2.8347,2.8349,2.8317,2.8417,2.8428,2.8437,2.8469,2.8482,2.8322,2.8321,2.832,2.832,0,2.8898,2.8883,2.8899,2.8837,2.8815,2.8818,2.8738,2.8726,2.8674,2.8622,2.8616,2.8557,2.8516,2.8512,2.846,2.8507,2.8487,2.8435,2.8367,2.8462,2.849,2.8502,2.8332,2.8329,2.8327,2.8326,0,0,2.9073,2.897,2.8977,2.8949,2.8875,2.8862,2.8862,2.8823,2.8815,2.8772,2.877,2.8738,2.869,2.8662,2.8605,2.8616,2.8696,2.8562,2.8559,2.8589,2.8745,2.8785,2.8801,2.8656,2.8658,2.8659,2.8751,0,2.9164,2.9157,2.9085,2.9099,2.9086,2.8996,2.8996,2.8952,2.8905,2.8887,2.8834,2.8813,2.8751,2.8734,2.874,2.8685,2.8726,2.8677,2.8653,2.8653,2.867,2.8815,2.8856,2.8945,2.8761,2.8763,2.8764,0,2.9267,2.9233,2.9246,2.9175,2.9167,2.9168,2.9128,2.9111,2.906,2.9025,2.8997,2.8933,2.8929,2.8867,2.886,2.8829,2.8815,2.8787,2.8788,2.8782,2.8714,2.8813,2.8971,2.8985,2.878,2.8779,2.8778,0,2.9395,2.9352,2.9355,2.9334,2.9251,2.9255,2.922,2.9166,2.9148,2.9113,2.9101,2.9066,2.9047,2.9022,2.8951,2.8912,2.8954,2.8885,2.8925,2.8927,2.8937,2.8937,2.9095,2.8929,2.8929,2.8929,2.8928,0,2.9503,2.9515,2.9412,2.9414,2.9426,2.9344,2.9358,2.9315,2.9269,2.9261,2.9182,2.9177,2.9084,2.9069,2.9014,2.9018,2.901,2.8982,2.8967,2.8989,2.8993,2.8978,2.897,2.8932,2.8931,2.8931,2.893,0,2.9648,2.9579,2.9577,2.95,2.9481,2.9493,2.9427,2.9427,2.9376,2.9368,2.9361,2.9282,2.926,2.9188,2.9148,2.9111,2.9132,2.9104,2.915,2.914,2.9185,2.9182,2.9338,2.9355,2.918,2.9181,2.9183,0,2.972,2.9728,2.9653,2.9643,2.9613,2.9597,2.9579,2.95,2.9485,2.9429,2.9436,2.9408,2.9381,2.9351,2.929,2.9259,2.923,2.9287,2.9224,2.9247,2.9231,2.9231,2.9232,2.93,2.9303,2.9304,2.9306,0,2.9858,2.9825,2.9802,2.9769,2.975,2.972,2.9684,2.9681,2.9593,2.958,2.9558,2.9538,2.9498,2.9472,2.9433,2.9397,2.9338,2.9327,2.9334,2.9356,2.9383,2.9369,2.9186,2.9323,2.9321,2.932,2.9319,2.9318,2.9968,2.9972,2.9921,2.9899,2.9865,2.9835,2.9831,2.9782,2.9762,2.9724,2.9679,2.9663,2.9614,2.9555,2.9525,2.9511,2.9478,2.9489,2.9492,2.9496,2.9507,2.9386,2.9503,2.9503,2.9502,2.9502,2.9501,0,3.0102,3.0065,3.0046,3.0001,2.9985,2.9932,2.9892,2.9881,2.9868,2.9828,2.9805,2.978,2.9756,2.9694,2.9663,2.9665,2.9637,2.9659,2.9658,2.9651,2.9537,2.9534,2.9683,2.9683,2.9683,2.9682,2.9682,2.9682,3.0169,3.0173,3.0135,3.0122,3.0085,3.0069,3.0051,3.0023,2.9991,2.9968,2.9947,2.9908,2.9859,2.9825,2.9801,2.9783,2.9776,2.9808,2.9782,2.9676,2.9659,2.9642,2.9639,2.9807,2.9807,2.9896,2.9897,2.9898]},{"header":{"parameterUnit":"m.s-1","parameterCategory":1,"la1":30.2991,"la2":30.254,"lo1":-89.0895,"lo2":-89.0444,"dy":0.0017,"dx":0.0017,"nx":28,"ny":28,"refTime":"2023-06-26T21:00:00:Z","depth":0,"parameterNumber":3,"parameterNumberName":"V-component_of_WINDS"},"data":[0,0,0,0,0,0,0,0,0,0,0,0,0,0,0,0,0,0,0,0,0,0,0,0,0,0,0,0,0,0,0,0,0,0,0,0,0,0,0,0,0,0,0,0,0,0,0,0,0,0,0,0,0,0,0,0,0,0,2.1041,2.1045,0,2.1493,2.1498,2.1503,2.1602,2.1598,2.1595,2.1592,2.2065,2.208,2.2096,0,0,0,0,0,0,0,0,0,0,0,0,0,2.0267,2.0281,2.104,2.1046,2.1051,2.1492,2.1499,2.1505,2.1602,2.1598,2.1594,2.159,2.206,2.2078,2.2097,0,0,0,0,0,0,0,0,0,0,0,0,0,2.065,2.0285,2.1039,2.1153,2.1168,2.1491,2.1499,2.1506,2.1603,2.1598,2.1593,2.1589,2.2054,2.2077,2.21,2.2345,0,0,2.2172,2.2182,0,0,0,0,0,0,0,0,2.0628,2.0678,2.1131,2.1146,2.1163,2.1486,2.14,2.1788,2.1604,2.1438,2.1592,2.1586,2.1877,2.1915,2.2011,2.2367,2.2387,2.2174,2.2188,2.2198,2.2205,0,0,0,0,0,0,0,2.0601,2.0659,2.122,2.1137,2.1157,2.1184,2.1233,2.1474,2.168,2.1452,2.146,2.1512,2.1885,2.1988,2.2023,2.2394,2.2173,2.2194,2.2209,2.2218,2.2972,2.2978,0,0,0,0,0,0,2.0554,2.0636,2.1205,2.1233,2.0877,2.1202,2.1256,2.1387,2.1678,2.1717,2.1516,2.1515,2.195,2.1995,2.204,2.2346,2.2198,2.222,2.2234,2.2966,2.2973,2.298,0,0,0,0,0,0,2.0537,2.0603,2.1187,2.0937,2.1014,2.122,2.1366,2.1399,2.1502,2.1726,2.1764,2.1583,2.1948,2.2007,2.2267,2.2363,2.2231,2.2252,2.2959,2.2968,2.2977,2.2958,0,0,0,0,0,0,2.0514,2.0597,2.0691,2.0938,2.1026,2.1405,2.1372,2.1411,2.1541,2.1544,2.1799,2.1836,2.1949,2.2231,2.229,2.2393,2.227,2.2952,2.2963,2.2974,2.2951,2.2965,2.2977,0,0,0,0,0,2.0486,2.067,2.0695,2.0763,2.1148,2.141,2.1461,2.1584,2.1548,2.1646,2.1789,2.1828,2.2342,2.2257,2.2325,2.2436,2.2946,2.296,2.2973,2.2946,2.2963,2.2977,0,0,0,0,0,0,2.0433,2.0705,2.0736,2.1004,2.1183,2.1426,2.1553,2.1598,2.1794,2.1789,2.1935,2.1992,2.2244,2.2366,2.2266,2.2687,2.2643,2.267,2.2599,2.2617,2.263,2.2597,2.229,0,0,0,0,0,2.0451,2.0639,2.0868,2.1083,2.1171,2.1345,2.1465,2.1543,2.1736,2.1813,2.1976,2.2163,2.2366,2.2498,2.2698,2.2968,2.3025,2.3077,2.309,2.31,2.3123,2.3274,2.33,2.3024,2.3023,2.3023,0,0,2.0494,2.0665,2.0776,2.1077,2.1224,2.1418,2.1409,2.1615,2.1761,2.1846,2.2101,2.2225,2.2444,2.271,2.2835,2.282,2.3211,2.3117,2.3123,2.3142,2.329,2.3316,2.3339,2.3033,2.3031,2.3029,0,0,2.067,2.0818,2.1013,2.116,2.1382,2.1496,2.1542,2.1779,2.1864,2.2121,2.2188,2.2364,2.2712,2.2864,2.2987,2.3215,2.326,2.3276,2.3347,2.3492,2.3514,2.3534,2.3616,2.3644,2.3298,2.3298,2.3298,0,2.0696,2.0988,2.1109,2.1311,2.1441,2.1521,2.1721,2.1858,2.2135,2.2224,2.2201,2.2637,2.279,2.3092,2.3147,2.3244,2.3303,2.325,2.35,2.3522,2.3542,2.3623,2.3653,2.3299,2.3299,2.3299,2.3299,0,2.1009,2.121,2.1341,2.1602,2.1747,2.1947,2.2099,2.2232,2.2296,2.2413,2.2673,2.2859,2.3096,2.3173,2.324,2.3485,2.3468,2.347,2.343,2.3567,2.3645,2.3677,2.33,2.33,2.3299,2.3299,0,0,2.117,2.1491,2.1537,2.1656,2.1904,2.2063,2.2266,2.2494,2.2606,2.2792,2.2968,2.3257,2.326,2.3399,2.3483,2.361,2.3779,2.3598,2.3605,2.3626,2.4061,2.4059,2.4092,2.3807,2.3814,2.3819,2.4043,0,2.1378,2.174,2.1853,2.2157,2.2344,2.242,2.2597,2.2769,2.2883,2.306,2.3186,2.3389,2.3377,2.3461,2.359,2.3731,2.3869,2.3716,2.3974,2.3982,2.392,2.4133,2.4133,2.4336,2.4074,2.4079,2.4083,0,2.1671,2.1858,2.2179,2.2401,2.2484,2.264,2.2858,2.3025,2.3222,2.3295,2.3447,2.352,2.3736,2.3678,2.3978,2.3871,2.3983,2.4067,2.4078,2.411,2.4043,2.4173,2.4404,2.4435,2.4132,2.4128,2.4125,0,2.1757,2.209,2.2325,2.2424,2.2688,2.2796,2.2912,2.3103,2.3232,2.3422,2.3508,2.3722,2.384,2.4004,2.4132,2.4078,2.4421,2.4374,2.449,2.4487,2.4562,2.4557,2.4816,2.4629,2.4628,2.4628,2.4627,0,2.198,2.2174,2.2367,2.2512,2.2731,2.2858,2.3072,2.3192,2.3361,2.3531,2.361,2.3769,2.3927,2.4107,2.4208,2.4441,2.4494,2.4561,2.4586,2.4556,2.4547,2.4634,2.4624,2.4636,2.4634,2.4632,2.4631,0,2.2115,2.2252,2.2513,2.274,2.2801,2.2953,2.3149,2.3293,2.3406,2.3621,2.3679,2.3859,2.4075,2.4217,2.4494,2.4561,2.4816,2.4837,2.4749,2.4762,2.487,2.4858,2.5197,2.5248,2.5023,2.5025,2.5026,0,2.225,2.24,2.2641,2.2759,2.2874,2.3064,2.3195,2.3325,2.3459,2.3691,2.3807,2.4026,2.421,2.455,2.4707,2.4918,2.4947,2.505,2.498,2.4943,2.4951,2.4941,2.4957,2.5063,2.5065,2.5066,2.5067,0,2.2474,2.2533,2.2717,2.2925,2.3078,2.3249,2.342,2.3513,2.3672,2.3818,2.4037,2.4179,2.4458,2.4676,2.49,2.5021,2.5072,2.5087,2.5126,2.5098,2.5041,2.5075,2.4782,2.508,2.5079,2.5078,2.5077,2.5077,2.2616,2.2752,2.2942,2.3144,2.3285,2.3442,2.3588,2.3718,2.3902,2.4138,2.4203,2.4432,2.4622,2.4928,2.5052,2.5234,2.5224,2.5279,2.5293,2.5306,2.5307,2.5008,2.5275,2.5275,2.5275,2.5275,2.5275,0,2.2846,2.297,2.3154,2.3389,2.3548,2.3576,2.3766,2.3898,2.4097,2.4268,2.4445,2.4696,2.4906,2.5077,2.5294,2.5406,2.5435,2.5459,2.5454,2.5481,2.5303,2.5249,2.5432,2.5432,2.5432,2.5432,2.5432,2.5432,2.2984,2.3216,2.3297,2.36,2.3724,2.3946,2.4052,2.4197,2.4335,2.461,2.4784,2.4892,2.5064,2.5293,2.5487,2.5532,2.5609,2.5629,2.5679,2.5511,2.5494,2.5477,2.5427,2.5644,2.5644,2.5842,2.5844,2.5845]}]]